Location: Unspecified
(0.0000°N, 0.0000°E)
Time: 03:11:51
(UTC+02:00)

BREEZE-M DEB (TANK) - Visible Passes

Search period start: 05 September 2015 00:00
Search period end: 15 September 2015 00:00
Orbit: 354 x 16339 km, 49.5° (Epoch: 03 September)

Date Brightness Start Highest point End Pass type
(mag) Time Alt. Az. Time Alt. Az. Time Alt. Az.
05 Sep 8.0 01:59:40 10° SSW 02:23:35 23° SSW 02:23:35 23° SSW visible
05 Sep 8.5 18:20:57 10° WNW 19:37:44 42° SW 21:54:32 10° SSE visible
06 Sep 8.1 02:53:51 10° SSW 03:05:36 18° SSW 03:05:36 18° SSW visible
06 Sep 8.3 19:10:49 10° W 21:21:12 27° SSW 22:46:59 10° SE visible
07 Sep 8.2 03:45:35 10° SW 03:47:36 12° SW 03:47:36 12° SW visible
07 Sep 8.1 20:07:50 10° W 22:59:47 21° S 23:33:10 15° SSE visible
08 Sep 8.0 21:34:08 10° WSW 00:06:36 22° S 00:15:12 22° SSE visible
09 Sep 7.9 23:53:53 10° SSW 00:57:14 27° S 00:57:14 27° S visible
10 Sep 8.6 16:47:19 10° NW 17:30:53 61° SW 20:11:59 10° SSE visible
11 Sep 7.9 01:03:32 10° SSW 01:39:17 27° S 01:39:17 27° S visible
11 Sep 8.6 17:33:36 10° WNW 18:37:49 45° SW 21:05:30 10° SSE visible
12 Sep 7.9 02:00:37 10° SSW 02:21:20 24° SSW 02:21:20 24° SSW visible
12 Sep 8.3 18:22:28 10° WNW 20:12:07 31° SSW 21:59:03 10° SE visible
13 Sep 8.1 02:54:02 10° SW 03:03:23 17° SW 03:03:23 17° SW visible
13 Sep 8.1 19:16:57 10° W 22:03:00 22° S 22:49:00 12° SE visible
